星链-2652 (STARLINK-2652 )

导读 | 豆包AI

STARLINK-2652是美国SpaceX星链项目的卫星,于2021年5月9日发射升空,属于星链星座组网建设的组成部分。星链旨在构建全球卫星互联网,该卫星承担着为全球偏远地区、海洋等网络盲区提供宽带互联网接入服务的任务,进一步拓展了星链星座的覆盖范围与服务能力。

Basic Information
目录编号:
48451
目录名称:
STARLINK-2652
国际标识:
2021-040Z
轨道中心:
EARTH
卫星名称:
星链-2652
卫星全名:
星链-2652 (STARLINK-2652 )
卫星状态:
已陨落 最后检测时间 2024-08-17
发射日期:
2021-05-09 UTC
国别 :
美国 (US)
星等 :
--
Orbit Information
数据来源 国际轨道数据
星历时间: 2024-08-17T19:56:25+0800
轨道信息已过期574天
半长轴: 6561.769km
偏心率: 0.0006489
轨道倾角: 53.033°
近地点辐角 202.869°
升交点赤经 143.338°
平近点角 311.506°
近地点: 179.376km
远地点: 187.892km
周期: 88.164分钟
每日圈数: 16.333205
Detailed Information
固有亮度:
5
最大亮度:
2.5
卫星平台:
Starlink V1.0
覆盖范围:
全球
运营商:
太空探索技术公司
运营商所在国:
美国
制造商(研发单位):
太空探索技术公司
制造商所在国:
美国
使用方式:
暂无
Satellite Introduction
星链(Starlink)计划是由太空探索技术公司(SpaceX)提出的一个巨型低轨卫星互联网星座项目,计划在2019年至2024年间在太空搭建由约1.2万颗卫星组成的“星链”网络,其中1584颗将部署在地球上空550千米处的近地轨道,并从2020年开始工作。该卫星仍在工作。